SBIRS GEO-2 (USA 241)

Last updated on Sept. 24, 2020, 5:43 a.m. UTC

1 39120U 13011A   20267.25567628  .00000103  00000-0  00000-0 0  9993
2 39120   2.0420 347.2909 0002567 190.3057 297.6162  1.00272824 27552
UTC
Height (km)
Latitude
Longitude
Inclination
Orbital Period
UTC large
Height (km)
Speed (km/s)
/
Latitude / Longitude
Inclination (degrees)
Orbital Period (minutes)
Azimuth
Elevation
Range (km)
Doppler Factor
iOS Compass Heading
iOS Angle

Next 30 passes for location: Hong Kong

Rise time Rise Azimuth (degrees) Set time Set Azimuth (degrees) Duration Max altitude (degrees)

No matching passes for this satellites